Temperature
18 18 18 18 18 18 18 18 18 18 18 18 18 18 18 18 18 18 18 18 18 18 18 17 17 17 17 17 17 17 16 16 16 16 16 16 16 16 16 16 16 16 15
18 18 18 18 18 18 18 18 18 18 18 18 18 18 18 18 18 18 18 18 18 17 17 17 17 17 17 17 17 17 17 16 16 16 16 16 16 16 16 16 16 15 15
18 18 18 18 18 18 18 18 18 18 18 18 18 18 18 18 18 18 17 18 17 17 17 17 17 17 17 17 17 17 17 17 16 16 16 16 16 16 16 16 15 15 15
18 18 18 18 18 18 18 18 18 18 18 18 18 18 18 18 18 17 17 17 17 17 17 17 17 17 17 17 17 17 17 17 16 16 16 16 16 16 16 16 15 15 15
18 18 18 18 18 18 18 18 18 18 18 18 18 18 18 18 18 18 17 17 17 17 17 17 17 17 17 17 17 17 17 17 16 16 16 16 16 16 16 16 15 15 15
18 18 18 18 18 18 18 18 18 18 18 18 18 18 18 18 18 18 18 17 17 17 17 17 17 17 17 17 17 17 17 17 17 16 16 16 16 16 16 16 15 15 15
18 18 18 18 18 18 18 18 18 18 18 18 18 18 18 18 18 18 18 18 17 17 17 17 17 17 17 17 17 17 17 17 17 16 16 16 16 16 16 16 15 15 15
18 18 18 18 18 18 18 18 18 18 18 18 18 18 18 18 18 18 18 18 18 18 17 17 17 17 17 17 17 17 17 17 17 16 16 16 16 16 16 15 15 15 15
18 18 18 18 18 18 18 18 17 17 18 18 17 17 17 18 18 18 18 18 18 18 17 17 17 17 17 17 17 17 17 17 16 16 16 16 16 16 16 15 15 15 15
18 18 18 18 18 18 18 18 17 17 17 17 17 17 18 18 18 17 17 18 18 17 17 17 17 17 17 17 17 17 17 17 16 16 16 16 16 15 15 15 15 15 15
18 18 18 18 18 18 18 18 17 17 17 17 17 17 17 18 17 17 17 17 17 17 17 17 17 17 17 17 17 17 16 16 16 16 16 16 16 15 15 15 15 15 15
18 18 18 18 18 18 18 18 18 17 17 17 17 17 17 17 17 17 17 17 17 17 17 17 16 16 16 16 16 16 16 16 16 16 16 15 15 15 15 15 15 14 14
18 18 18 18 18 18 18 18 17 18 17 17 17 17 17 17 17 17 17 17 16 16 16 16 16 16 16 16 16 16 16 15 15 15 15 15 15 15 15 14 14 14 14
18 18 18 18 18 18 17 17 17 17 17 17 17 17 17 17 17 17 17 17 16 16 16 16 16 16 16 16 16 16 15 15 15 15 15 15 15 15 14 14 14 14 14
18 18 18 18 18 17 17 17 17 17 17 17 17 17 17 17 17 17 16 16 16 16 15 16 15 15 15 16 15 15 15 15 15 15 15 14 14 14 14 14 14 14 13
18 18 18 18 17 17 17 17 17 17 17 17 17 17 16 16 16 16 16 16 16 16 15 15 15 15 15 15 15 15 15 14 14 14 14 14 14 14 14 13 13 13 13
18 18 18 17 17 17 17 17 17 17 16 16 16 16 16 16 16 16 16 16 16 16 15 15 14 14 14 14 14 14 14 14 14 14 14 14 14 13 13 13 13 13 13
18 18 17 17 17 17 17 17 17 16 16 16 16 16 16 16 16 16 16 16 16 15 15 15 14 14 14 14 14 13 13 13 13 13 13 13 13 13 13 13 13 12 12
18 17 17 17 17 17 17 17 16 16 16 16 16 16 16 16 16 16 15 15 15 15 15 14 14 13 13 13 13 13 13 13 13 13 13 13 13 13 13 12 12 12 12
17 17 17 17 17 17 17 17 16 16 16 16 15 15 15 15 15 15 15 15 15 15 14 14 14 13 13 13 13 13 12 12 12 12 12 12 12 12 12 12 12 12 12
17 17 17 17 17 17 16 16 16 16 15 15 15 15 15 15 15 15 14 14 14 14 14 13 13 13 13 12 12 12 12 12 12 12 12 12 12 12 12 11 11 11 11
17 17 17 16 16 16 16 16 16 15 15 15 15 15 14 14 14 14 14 14 14 14 13 13 13 13 12 12 12 12 12 12 11 11 11 11 11 11 11 11 11 11 11
17 17 16 16 16 16 16 16 15 15 15 15 14 14 14 14 14 14 14 14 13 13 13 13 13 12 12 12 12 12 12 12 12 12 11 11 11 11 11 11 11 11 10
16 16 16 16 16 16 16 16 15 15 14 14 14 14 14 13 13 13 13 13 13 13 13 12 12 12 12 12 12 12 12 11 11 11 11 11 11 11 10 10 10 10 10
16 15 15 15 15 15 15 15 15 14 14 14 14 13 13 13 13 13 13 13 13 12 12 12 12 12 12 12 11 11 11 11 11 11 11 11 10 10 10 10 10 10 10
15 15 15 15 15 15 15 15 14 14 14 13 13 13 13 13 13 12 12 12 12 12 12 12 11 11 11 11 11 11 11 11 11 10 10 10 10 10 10 10 10 10 9
Wind_Speed
2 4 3 4 5 6 6 3 3 3 2 2 1 1 1 2 4 9 12 15 14 13 11 10 10 9 9 9 9 8 8 8 7 8 7 7 7 7 6 6 5 5 5
4 3 2 1 2 3 4 3 3 2 2 2 2 2 1 2 4 8 12 13 14 13 12 11 10 10 10 10 10 9 9 8 8 8 8 8 7 7 7 7 6 6 6
5 3 2 1 1 3 3 2 1 2 2 2 2 2 1 2 3 5 10 12 12 13 13 13 12 11 11 11 11 11 10 10 10 9 9 9 9 8 8 7 7 7 7
4 3 2 2 3 3 3 2 2 1 1 1 1 2 1 2 2 4 6 9 11 12 14 15 14 14 13 13 13 12 12 12 12 11 11 11 10 10 9 9 8 8 8
5 3 2 3 4 2 2 3 2 1 2 1 1 3 3 3 3 5 5 7 8 10 11 15 17 16 14 13 13 13 13 13 14 14 13 13 12 12 11 10 10 10 9
5 4 3 4 4 2 2 2 1 2 2 2 3 2 2 3 3 3 4 5 7 9 10 11 13 14 15 15 15 15 14 14 14 15 15 14 14 13 13 12 12 11 10
6 4 2 2 2 2 3 3 2 3 3 3 2 2 3 4 4 3 3 3 4 7 8 10 12 11 11 16 17 16 16 15 15 15 15 15 14 14 14 14 13 13 12
5 5 4 3 2 2 2 3 3 2 3 2 2 2 2 2 2 4 3 3 3 3 5 7 9 10 9 9 11 15 14 14 14 14 13 13 14 14 14 13 12 13 13
5 4 3 3 2 3 3 4 4 4 4 3 3 2 2 2 1 1 2 3 3 3 2 2 4 7 8 7 9 13 15 15 14 13 13 13 13 12 12 12 12 12 12
4 4 4 3 2 2 3 4 4 4 4 4 3 3 3 2 1 1 1 1 2 2 2 2 1 4 6 7 8 9 14 15 14 13 12 11 11 12 12 12 11 11 11
4 3 4 3 3 3 3 3 2 3 3 3 3 3 3 3 4 3 3 2 1 1 0 0 1 1 3 5 6 6 9 12 13 13 12 12 11 11 11 10 10 10 10
3 3 3 2 3 3 3 2 2 3 3 3 3 3 3 2 2 3 3 3 2 1 1 1 1 1 2 2 3 4 6 8 10 11 12 12 12 11 10 10 9 9 9
3 3 3 3 3 3 3 2 3 3 3 4 4 3 3 3 3 3 3 3 2 2 2 1 1 2 2 2 3 4 6 8 8 9 9 10 10 10 10 10 9 9 8
2 3 2 3 3 3 3 2 3 3 3 4 4 3 3 3 3 3 3 3 2 2 2 2 0 2 2 3 3 4 4 7 8 7 8 9 10 9 9 9 9 9 9
2 2 2 2 2 2 3 2 3 3 2 3 3 3 3 3 3 3 3 3 3 3 2 1 0 1 3 3 4 5 5 6 6 7 7 8 8 9 9 9 8 8 8
0 0 1 2 2 3 3 2 2 3 3 3 2 2 2 2 2 2 3 3 3 3 2 1 0 1 2 3 4 5 5 5 5 5 6 7 8 8 8 8 7 7 8
0 1 1 2 2 2 2 2 2 2 2 2 2 2 1 2 2 2 2 1 1 1 2 1 0 1 1 2 4 4 3 4 4 5 6 6 6 7 7 7 7 7 7
0 1 1 2 1 1 1 1 2 2 1 1 1 1 1 1 1 2 2 1 1 1 2 2 1 1 0 1 2 2 3 3 5 6 7 7 7 6 6 6 6 6 7
1 0 0 0 0 0 0 0 1 1 0 0 0 1 1 1 1 1 1 1 1 1 2 2 2 1 1 1 1 1 2 3 3 5 7 6 6 6 5 5 5 6 6
2 1 1 1 1 1 1 0 0 1 0 0 1 1 1 2 1 1 1 1 1 0 1 2 2 1 1 2 1 1 1 1 1 3 5 6 6 5 5 5 5 6 6
3 2 2 1 1 2 1 1 0 0 0 0 1 2 2 2 3 2 1 1 1 0 1 2 2 1 1 1 1 2 1 1 1 2 2 3 4 4 4 4 5 5 6
2 2 2 2 1 2 4 5 2 1 1 1 1 1 1 2 2 2 3 3 2 1 1 2 2 2 2 2 1 2 2 2 1 2 2 2 4 3 4 4 5 6 7
3 2 2 2 3 4 5 5 4 2 1 1 1 1 1 2 2 2 2 1 2 2 1 2 2 2 2 2 2 2 2 2 2 3 2 2 3 2 4 5 6 7 7
2 3 3 3 3 3 4 4 4 1 1 1 1 1 1 2 3 2 1 2 2 2 1 0 0 1 1 1 3 4 4 3 2 2 3 2 3 3 4 5 7 8 8
2 3 3 3 3 3 4 4 3 1 2 2 2 3 3 3 4 4 2 1 2 2 3 3 2 2 2 2 1 1 2 2 2 2 1 1 2 2 2 2 6 8 8
2 3 3 3 3 3 4 4 3 1 1 1 2 4 6 5 5 4 2 1 1 2 2 1 1 1 2 2 2 1 1 2 1 1 1 1 2 2 2 2 4 6 6
Wind_Direction
122 129 145 164 177 160 163 170 164 151 147 148 206 162 115 98 119 129 146 161 164 168 172 176 178 181 183 183 183 183 184 184 181 180 179 180 179 179 178 176 174 174 175
118 120 131 159 167 161 148 158 168 150 175 188 199 185 184 149 139 141 150 165 175 179 182 185 189 191 194 194 195 197 197 198 196 195 196 196 196 195 194 193 193 191 191
122 133 120 144 159 125 117 153 171 169 193 199 210 212 189 175 163 156 156 165 178 188 191 192 196 201 203 203 203 205 207 208 207 207 206 204 205 205 206 206 205 202 200
154 158 155 168 155 160 159 176 222 202 205 226 217 239 198 170 181 182 182 180 179 184 194 200 202 204 207 210 211 212 214 214 212 213 214 212 213 213 212 213 213 210 208
178 192 185 155 171 189 190 210 191 217 226 228 233 226 218 199 196 206 194 193 184 180 184 198 204 207 210 214 217 218 219 219 218 218 218 218 219 218 217 218 216 214 212
189 202 200 178 196 202 209 209 205 224 239 239 253 247 222 209 199 215 211 194 185 190 193 189 196 209 214 216 219 222 223 223 221 220 221 222 220 220 219 217 217 214 214
197 203 227 183 201 208 208 211 207 225 226 223 236 275 257 227 212 201 202 192 191 193 192 186 187 198 205 218 222 224 224 224 222 223 223 222 221 220 218 218 219 218 217
199 204 200 211 203 212 219 231 223 231 244 229 220 236 259 258 248 221 189 190 195 180 179 191 187 190 195 194 209 218 219 221 222 222 221 223 223 221 219 219 217 218 217
206 214 195 209 209 199 206 229 227 224 235 241 221 207 221 234 264 270 212 188 180 190 190 171 186 186 188 183 191 209 215 217 219 221 220 219 216 213 212 216 217 216 217
205 201 201 218 218 229 212 227 213 228 231 249 250 234 229 225 205 250 278 197 193 195 205 222 172 161 183 184 189 191 201 208 211 212 211 211 209 208 210 212 213 213 215
201 206 194 208 220 238 228 237 233 234 239 246 250 253 249 238 219 212 237 241 300 306 238 233 136 141 201 185 184 186 189 201 205 206 206 205 202 201 203 203 208 212 213
202 204 201 202 214 235 235 233 229 233 243 259 259 258 251 241 232 221 229 225 238 261 277 249 198 159 200 182 177 168 173 191 198 201 202 202 201 201 203 206 210 213 217
198 200 209 193 218 233 233 228 223 240 237 247 249 254 259 253 249 236 217 233 240 239 229 229 237 146 198 146 142 161 173 181 186 192 198 200 200 202 204 205 206 210 214
199 181 192 195 208 228 241 228 233 236 238 247 255 255 258 262 257 236 218 214 235 244 223 217 76 95 105 110 128 147 160 170 175 184 193 197 196 199 202 204 205 207 210
220 176 186 194 215 228 245 238 239 245 243 249 261 264 265 272 266 253 240 224 217 238 250 221 205 81 88 98 125 127 124 137 160 178 192 197 196 197 198 199 201 202 204
248 166 196 215 221 226 234 240 245 245 241 247 249 261 269 279 287 279 250 240 226 217 240 238 238 131 106 102 117 119 117 120 145 175 189 190 189 190 189 188 192 195 198
181 190 230 243 238 243 239 237 245 252 247 267 276 280 303 313 319 309 285 268 233 197 215 247 99 102 93 102 108 109 111 114 122 146 159 167 167 170 174 180 186 193 196
202 223 228 246 253 252 256 271 284 274 240 266 303 336 321 313 316 319 319 308 242 210 183 190 199 223 205 158 148 148 123 114 114 118 130 132 137 148 158 167 179 186 190
161 258 188 189 216 213 162 37 274 287 288 273 299 319 327 340 330 344 325 311 293 227 165 170 199 204 210 202 183 166 124 126 123 121 127 130 132 137 147 163 178 182 183
151 116 81 99 111 93 61 51 352 310 24 43 47 42 43 37 360 332 302 306 315 307 154 150 171 189 217 221 199 189 181 221 201 145 133 136 140 144 151 157 168 176 178
152 134 119 98 87 79 47 31 357 21 27 50 68 70 68 66 54 29 357 4 350 266 178 167 182 188 201 205 217 224 203 224 270 174 157 150 146 146 154 163 166 166 170
126 124 127 107 82 63 53 45 21 5 70 82 63 66 104 107 78 62 57 38 15 279 216 198 209 205 226 225 217 215 206 217 227 195 181 192 162 167 160 159 168 174 179
142 139 126 104 88 74 61 49 28 10 37 104 101 62 33 57 81 61 51 27 8 20 174 219 215 213 223 220 224 228 230 229 235 212 203 201 184 178 162 167 176 178 184
141 142 132 123 110 87 66 51 23 29 39 64 74 82 69 61 45 30 37 43 33 23 356 237 151 253 219 223 235 225 223 231 242 217 190 212 196 190 167 165 179 181 189
145 144 142 134 120 97 69 51 27 79 71 65 62 60 68 68 43 39 55 43 43 47 63 87 121 149 161 174 209 243 226 223 238 231 215 213 203 191 177 176 186 190 196
160 150 145 142 137 115 91 64 34 63 82 77 85 85 71 59 48 32 47 44 45 27 15 31 87 141 164 179 198 248 256 249 236 216 220 234 216 196 194 177 175 186 200
Height
1567 1567 1567 1569 1570 1571 1572 1573 1574 1575 1577 1578 1578 1579 1580 1580 1580 1580 1580 1580 1581 1581 1582 1583 1583 1584 1585 1585 1586 1587 1588 1589 1589 1590 1591 1592 1593 1593 1594 1595 1595 1596 1597
1567 1567 1568 1569 1570 1571 1573 1573 1574 1575 1576 1577 1578 1579 1580 1580 1580 1580 1580 1580 1581 1581 1582 1582 1583 1583 1584 1585 1585 1586 1587 1588 1589 1589 1590 1591 1592 1592 1593 1594 1595 1595 1596
1566 1567 1568 1569 1570 1571 1572 1573 1574 1575 1576 1577 1577 1578 1579 1579 1580 1580 1580 1580 1580 1581 1581 1582 1582 1583 1583 1584 1585 1585 1586 1587 1587 1588 1589 1590 1590 1591 1592 1593 1593 1594 1595
1566 1567 1568 1569 1570 1571 1571 1572 1573 1574 1575 1576 1576 1577 1578 1578 1579 1579 1579 1579 1579 1579 1580 1581 1581 1582 1582 1583 1583 1584 1585 1585 1586 1587 1587 1588 1589 1590 1590 1591 1592 1592 1593
1565 1566 1567 1568 1569 1570 1571 1572 1573 1573 1574 1575 1575 1576 1576 1577 1577 1578 1578 1578 1579 1579 1579 1579 1580 1580 1581 1581 1582 1582 1583 1583 1584 1585 1585 1586 1587 1587 1588 1589 1590 1590 1591
1564 1565 1566 1567 1568 1569 1570 1570 1571 1572 1573 1573 1574 1574 1574 1575 1575 1576 1576 1577 1577 1577 1577 1577 1578 1578 1579 1579 1580 1580 1581 1581 1581 1582 1583 1583 1584 1585 1586 1586 1587 1588 1588
1563 1564 1565 1566 1567 1567 1568 1569 1569 1570 1571 1572 1573 1572 1573 1573 1573 1574 1574 1574 1575 1575 1575 1575 1575 1576 1576 1577 1577 1578 1578 1578 1579 1579 1580 1581 1581 1582 1583 1583 1584 1585 1585
1561 1562 1563 1564 1565 1565 1566 1567 1568 1568 1569 1570 1571 1571 1571 1573 1571 1572 1572 1572 1573 1573 1573 1573 1573 1573 1574 1574 1574 1575 1575 1575 1576 1576 1577 1577 1578 1579 1579 1580 1581 1582 1582
1560 1560 1561 1562 1563 1563 1564 1565 1565 1566 1567 1568 1569 1570 1570 1569 1570 1570 1570 1570 1571 1571 1572 1572 1572 1571 1571 1571 1571 1572 1572 1573 1573 1573 1574 1574 1575 1575 1576 1577 1577 1578 1579
1558 1559 1559 1560 1561 1562 1562 1563 1563 1564 1565 1565 1566 1567 1568 1568 1568 1568 1568 1568 1569 1569 1569 1569 1569 1569 1568 1568 1568 1569 1569 1570 1570 1570 1571 1571 1571 1572 1573 1573 1574 1574 1575
1556 1557 1557 1558 1559 1560 1560 1560 1561 1561 1562 1562 1563 1564 1564 1565 1565 1566 1565 1566 1566 1566 1566 1566 1566 1566 1565 1566 1565 1565 1566 1566 1566 1567 1567 1568 1568 1569 1569 1570 1570 1571 1571
1554 1555 1556 1556 1557 1557 1558 1558 1559 1559 1559 1560 1560 1561 1561 1562 1562 1562 1562 1562 1563 1563 1563 1563 1562 1563 1562 1562 1562 1562 1562 1562 1563 1563 1564 1564 1565 1565 1566 1566 1566 1567 1567
1553 1553 1554 1554 1554 1555 1556 1556 1556 1556 1556 1557 1557 1557 1558 1558 1559 1559 1559 1559 1559 1560 1560 1560 1560 1559 1559 1559 1559 1559 1559 1559 1559 1560 1560 1560 1561 1561 1562 1562 1563 1563 1564
1551 1552 1552 1552 1552 1553 1553 1553 1553 1553 1554 1554 1554 1554 1555 1555 1555 1556 1556 1556 1556 1557 1557 1557 1557 1557 1556 1556 1555 1556 1556 1556 1556 1556 1556 1556 1557 1557 1557 1558 1558 1559 1559
1550 1550 1550 1550 1550 1550 1551 1551 1551 1551 1551 1551 1551 1551 1551 1552 1552 1552 1553 1553 1554 1553 1554 1554 1554 1554 1553 1553 1553 1552 1552 1551 1552 1552 1552 1552 1552 1553 1553 1554 1554 1555 1555
1548 1548 1548 1548 1548 1548 1548 1548 1548 1548 1548 1548 1548 1548 1548 1549 1549 1549 1549 1550 1550 1550 1550 1550 1551 1551 1551 1550 1550 1549 1548 1548 1548 1548 1548 1548 1548 1549 1549 1549 1550 1550 1551
1546 1546 1546 1546 1546 1546 1545 1545 1545 1545 1545 1545 1545 1545 1545 1545 1545 1545 1546 1546 1546 1547 1546 1547 1547 1548 1548 1547 1547 1547 1546 1546 1545 1545 1545 1545 1545 1545 1545 1545 1546 1546 1547
1544 1544 1543 1544 1543 1543 1543 1542 1542 1542 1542 1542 1542 1542 1542 1542 1542 1542 1543 1543 1543 1543 1543 1543 1544 1544 1544 1545 1545 1544 1544 1543 1543 1543 1542 1542 1542 1543 1543 1542 1542 1542 1543
1542 1542 1541 1541 1541 1541 1541 1540 1540 1540 1539 1539 1540 1540 1540 1540 1539 1540 1540 1540 1540 1541 1541 1540 1540 1541 1541 1542 1542 1542 1541 1541 1541 1541 1541 1540 1540 1540 1540 1540 1539 1539 1539
1540 1540 1540 1539 1539 1539 1539 1538 1538 1537 1537 1537 1537 1538 1537 1537 1537 1537 1537 1537 1537 1538 1538 1538 1538 1538 1539 1539 1539 1539 1539 1539 1539 1538 1538 1538 1538 1538 1537 1537 1536 1536 1536
1538 1538 1538 1538 1538 1537 1537 1536 1536 1535 1535 1535 1535 1535 1535 1535 1535 1535 1535 1535 1535 1535 1535 1535 1535 1536 1536 1536 1536 1536 1536 1536 1536 1536 1536 1535 1535 1534 1534 1534 1534 1533 1533
1536 1536 1536 1536 1536 1536 1535 1535 1534 1534 1533 1533 1533 1533 1533 1533 1533 1533 1533 1533 1533 1533 1533 1533 1533 1533 1533 1533 1534 1534 1534 1533 1533 1534 1534 1533 1533 1532 1532 1531 1531 1531 1530
1535 1535 1535 1535 1535 1534 1534 1534 1533 1533 1532 1532 1532 1532 1532 1531 1531 1531 1531 1531 1531 1531 1531 1531 1531 1531 1531 1531 1531 1531 1531 1531 1530 1531 1531 1530 1531 1530 1530 1529 1529 1529 1528
1533 1533 1533 1533 1533 1533 1533 1533 1532 1532 1531 1531 1531 1530 1530 1530 1529 1529 1529 1529 1529 1529 1529 1529 1529 1529 1528 1529 1528 1528 1528 1528 1528 1529 1529 1528 1528 1528 1528 1527 1527 1526 1526
1531 1532 1532 1532 1532 1532 1532 1531 1531 1531 1530 1530 1530 1529 1529 1529 1528 1528 1528 1527 1527 1527 1527 1527 1527 1527 1526 1526 1526 1526 1526 1526 1525 1526 1526 1526 1525 1525 1525 1525 1525 1524 1524
1529 1530 1530 1531 1531 1530 1530 1530 1530 1530 1529 1529 1529 1528 1528 1528 1527 1527 1527 1526 1526 1526 1525 1525 1525 1525 1524 1524 1523 1523 1523 1523 1522 1523 1523 1523 1523 1523 1523 1522 1522 1522 1522